sat.trackr.live / text

‹ back to catalog

STARLINK-2219

NORAD 48569 · 2021-041S

PAYLOAD ACTIVE UNKNOWN

§ Identity

Operator
Country
US
Launch date
2021-05-15
Launch site
AFETR
Launch vehicle
Mass (kg)
RCS (m²)

Purposes: comms

External: N2YO · Heavens-Above · Gunter

§ Orbital elements

Epoch: 2026-09-19T18:01:40.875456Z

Period
94.01 min
Inclination
53.1584°
Eccentricity
0.0001077
Mean motion
15.31703878 rev/d
Perigee alt
470.0 km
Apogee alt
471.5 km
Semi-major
6,848.9 km
B*
3.8985e-5
RAAN
303.5939°
Arg perigee
110.6735°
Mean anomaly
249.4382°
Rev number
29,501

§ Raw data

STARLINK-22191 48569U 21041S   26262.75116754  .00000845  00000+0  38985-4 0  99972 48569  53.1584 303.5939 0001077 110.6735 249.4382 15.31703878295012

JSON: /api/v1/satellites/48569 · /tle

For live sub-satellite position, see the globe view (requires WebGL).

§ Visibility from observer

Set your observer location to see the next 7 days of passes ≥ 10°. The values pass through the URL so the page stays shareable.

No JS? Fill the form by hand. The geolocation button needs JavaScript.